Location: Eagle Observatory
(42.5300°N, 88.2800°W)
Time: 17:41:47
(UTC-06:00)

Hubble Space Telescope - Visible Passes

Search period start: 13 February 2016 00:00
Search period end: 23 February 2016 00:00
Orbit: 540 x 543 km, 28.5° (Epoch: 13 February)

Date Brightness Start Highest point End Pass type
(mag) Time Alt. Az. Time Alt. Az. Time Alt. Az.
14 Feb 3.3 18:39:48 10° S 18:40:22 10° S 18:40:55 10° SSE visible
15 Feb 3.3 18:29:38 10° S 18:30:46 11° S 18:31:54 10° SSE visible
16 Feb 3.3 18:19:48 10° SSW 18:21:10 11° S 18:22:31 10° SSE visible
17 Feb 3.3 18:10:08 10° SSW 18:11:34 12° S 18:12:59 10° SSE visible
18 Feb 3.4 18:00:35 10° SSW 18:01:57 11° S 18:03:19 10° SSE visible
